This demonstration page uses our WeatherBlox Daily Observations layout. Learn more.

Left ArrowRight Arrow

Hourly Observations for October 18, 2021

Temp ( °F °C ) Dew Point ( °F °C ) Humidity (%) Winds ( mph kmh ) Pressure ( in mb ) Visibility ( mi km ) Precip ( " mm )
12:15 am 00:15 Clear 45 7 43 6 93 93 WSW 6 9 30.18 1022 10 16 N/A
12:35 am 00:35 Clear 45 7 43 6 93 93 WSW 7 11 30.17 1022 10 16 N/A
12:55 am 00:55 Clear 45 7 43 6 93 93 WSW 7 11 30.17 1022 10 16 N/A
1:15 am 01:15 Clear 45 7 43 6 93 93 WSW 6 9 30.16 1021 10 16 N/A
1:35 am 01:35 Clear 45 7 43 6 93 93 W 6 9 30.17 1022 10 16 N/A
1:55 am 01:55 Clear 43 6 43 6 100 100 WSW 5 7 30.17 1022 10 16 N/A
2:15 am 02:15 Clear 43 6 43 6 100 100 WSW 3 6 30.17 1022 10 16 N/A
2:35 am 02:35 Clear 43 6 43 6 100 100 N N/A 30.18 1022 10 16 N/A
2:55 am 02:55 Clear 43 6 43 6 100 100 N N/A 30.18 1022 10 16 N/A
3:15 am 03:15 Clear 41 5 41 5 100 100 N N/A 30.19 1022 10 16 N/A
3:35 am 03:35 Clear 41 5 41 5 100 100 N N/A 30.18 1022 10 16 N/A
3:55 am 03:55 Clear 41 5 41 5 100 100 SSW 5 7 30.18 1022 10 16 N/A
4:15 am 04:15 Clear 41 5 41 5 100 100 N N/A 30.18 1022 10 16 N/A
4:35 am 04:35 Clear 39 4 39 4 100 100 N N/A 30.18 1022 10 16 N/A
4:55 am 04:55 Clear 41 5 41 5 100 100 N N/A 30.18 1022 10 16 N/A
5:15 am 05:15 Clear 41 5 41 5 100 100 N N/A 30.19 1022 10 16 N/A
5:35 am 05:35 Clear 39 4 39 4 100 100 N N/A 30.19 1022 10 16 N/A
5:55 am 05:55 Clear 39 4 39 4 100 100 N N/A 30.19 1022 10 16 N/A
6:15 am 06:15 Clear 41 5 41 5 100 100 N N/A 30.19 1022 10 16 N/A
6:35 am 06:35 Clear 39 4 39 4 100 100 N N/A 30.20 1023 10 16 N/A
6:55 am 06:55 Clear 39 4 39 4 100 100 N N/A 30.20 1023 10 16 N/A
7:15 am 07:15 Clear 39 4 39 4 100 100 N N/A 30.20 1023 10 16 N/A
7:35 am 07:35 Clear 39 4 39 4 100 100 N N/A 30.20 1023 10 16 N/A
7:55 am 07:55 Clear 39 4 39 4 100 100 SSE 3 6 30.20 1023 10 16 N/A
8:15 am 08:15 Sunny 39 4 39 4 100 100 N N/A 30.21 1023 10 16 N/A
8:35 am 08:35 Sunny 41 5 41 5 100 100 N N/A 30.21 1023 10 16 N/A
8:55 am 08:55 Sunny 43 6 43 6 100 100 N N/A 30.21 1023 10 16 N/A
9:15 am 09:15 Sunny 46 8 46 8 100 100 N N/A 30.21 1023 10 16 N/A
9:35 am 09:35 Sunny 48 9 46 8 94 94 N N/A 30.21 1023 10 16 N/A
9:55 am 09:55 Sunny 52 11 46 8 82 82 N N/A 30.21 1023 10 16 N/A
10:15 am 10:15 Sunny 54 12 45 7 72 72 N N/A 30.20 1023 10 16 N/A
10:35 am 10:35 Sunny 57 14 45 7 63 63 N N/A 30.20 1023 10 16 N/A
10:55 am 10:55 Sunny 59 15 45 7 59 59 N N/A 30.19 1022 10 16 N/A
11:15 am 11:15 Sunny 61 16 45 7 55 55 N N/A 30.19 1022 10 16 N/A
11:35 am 11:35 Sunny 63 17 45 7 52 52 W 3 6 30.19 1022 10 16 N/A
11:55 am 11:55 Sunny 64 18 45 7 49 49 SW 3 6 30.18 1022 10 16 N/A
12:15 pm 12:15 Sunny 64 18 43 6 46 46 WSW 7 11 30.18 1022 10 16 N/A
12:35 pm 12:35 Sunny 66 19 41 5 40 40 W 8 13 30.18 1022 10 16 N/A
12:55 pm 12:55 Sunny 66 19 41 5 40 40 W 8 13 30.18 1022 10 16 N/A
1:15 pm 13:15 Sunny 66 19 41 5 40 40 WNW 3 6 30.17 1022 10 16 N/A
1:37 pm 13:37 Sunny 68 20 43 6 40 40 WSW 8 13 30.16 1021 10 16 N/A
1:55 pm 13:55 Sunny 68 20 43 6 40 40 WSW 7 11 30.16 1021 10 16 N/A
2:15 pm 14:15 Sunny 68 20 45 7 43 43 N N/A 30.15 1021 10 16 N/A
2:35 pm 14:35 Sunny 68 20 45 7 43 43 WNW 6 9 30.14 1021 10 16 N/A
2:55 pm 14:55 Sunny 70 21 45 7 40 40 W 5 7 30.13 1020 10 16 N/A
3:15 pm 15:15 Sunny 68 20 46 8 46 46 W 6 9 30.12 1020 10 16 N/A
3:35 pm 15:35 Sunny 70 21 46 8 43 43 W 7 11 30.12 1020 10 16 N/A
3:55 pm 15:55 Sunny 68 20 46 8 46 46 W 10 17 30.12 1020 10 16 N/A
4:15 pm 16:15 Sunny 70 21 45 7 40 40 SW 6 9 30.12 1020 10 16 N/A
4:35 pm 16:35 Sunny 70 21 45 7 40 40 WSW 8 13 30.12 1020 10 16 N/A
4:55 pm 16:55 Sunny 70 21 45 7 40 40 WSW 8 13 30.12 1020 10 16 N/A
5:15 pm 17:15 Sunny 70 21 45 7 40 40 WSW 6 9 30.11 1019 10 16 N/A
5:35 pm 17:35 Sunny 68 20 46 8 46 46 W 8 13 30.11 1020 10 16 N/A
5:55 pm 17:55 Sunny 68 20 45 7 43 43 W 8 13 30.11 1020 10 16 N/A
6:15 pm 18:15 Sunny 66 19 45 7 46 46 WSW 7 11 30.11 1020 10 16 N/A
6:35 pm 18:35 Sunny 64 18 45 7 49 49 W 7 11 30.11 1020 10 16 N/A
6:55 pm 18:55 Sunny 61 16 45 7 55 55 WSW 5 7 30.12 1020 10 16 N/A
7:15 pm 19:15 Clear 57 14 45 7 63 63 SW 6 9 30.13 1020 10 16 N/A
7:35 pm 19:35 Clear 57 14 45 7 63 63 SSW 3 6 30.14 1021 10 16 N/A
7:55 pm 19:55 Clear 57 14 46 8 67 67 SSW 5 7 30.14 1021 10 16 N/A
8:15 pm 20:15 Clear 55 13 46 8 72 72 SSW 6 9 30.14 1021 10 16 N/A
8:35 pm 20:35 Clear 55 13 46 8 72 72 SSW 5 7 30.15 1021 10 16 N/A
8:55 pm 20:55 Clear 54 12 46 8 77 77 S 5 7 30.14 1021 10 16 N/A
9:15 pm 21:15 Clear 54 12 46 8 77 77 SSW 5 7 30.14 1021 10 16 N/A
9:35 pm 21:35 Clear 54 12 46 8 77 77 S 3 6 30.15 1021 10 16 N/A
9:55 pm 21:55 Clear 54 12 46 8 77 77 N N/A 30.16 1021 10 16 N/A
10:15 pm 22:15 Clear 54 12 46 8 77 77 N N/A 30.16 1021 10 16 N/A
10:35 pm 22:35 Clear 52 11 46 8 82 82 N N/A 30.17 1022 10 16 N/A
10:55 pm 22:55 Clear 52 11 46 8 82 82 N N/A 30.17 1022 10 16 N/A
11:15 pm 23:15 Clear 50 10 46 8 88 88 S 3 6 30.17 1022 10 16 N/A
11:35 pm 23:35 Clear 48 9 46 8 94 94 SSE 5 7 30.17 1022 10 16 N/A
11:55 pm 23:55 Clear 50 10 48 9 94 94 S 3 6 30.17 1022 10 16 N/A

Powered by AerisWeather